Time,TemperatureF,DewpointF,PressureIn,WindDirection,WindDirectionDegrees,WindSpeedMPH,WindSpeedGustMPH,Humidity,HourlyPrecipIn,Conditions,Clouds,dailyrainin,SoftwareType,DateUTC
2013-08-11 00:04:00,62.8,52.8,29.94,NW,304,0.0,0.0,70,0.00,,CLR,0.00,VWS V14.01,2013-08-11 07:04:00,
2013-08-11 00:09:00,62.8,52.8,29.94,NW,320,0.0,0.0,70,0.00,,CLR,0.00,VWS V14.01,2013-08-11 07:09:00,
2013-08-11 00:15:00,62.6,52.7,29.94,NNW,338,2.2,2.2,70,0.00,,CLR,0.00,VWS V14.01,2013-08-11 07:15:00,
2013-08-11 00:20:00,62.4,52.5,29.94,NNW,338,0.0,0.0,70,0.00,,CLR,0.00,VWS V14.01,2013-08-11 07:20:00,
2013-08-11 00:25:00,62.4,52.5,29.94,NNW,338,0.0,0.0,70,0.00,,CLR,0.00,VWS V14.01,2013-08-11 07:25:00,
2013-08-11 00:31:00,62.2,52.3,29.94,NNW,338,0.0,0.0,70,0.00,,CLR,0.00,VWS V14.01,2013-08-11 07:31:00,
2013-08-11 00:37:00,62.4,52.9,29.94,WNW,288,0.0,0.0,71,0.00,,FEW009,0.00,VWS V14.01,2013-08-11 07:37:00,
2013-08-11 00:43:00,62.2,52.7,29.94,WNW,291,0.0,0.0,71,0.00,,FEW009,0.00,VWS V14.01,2013-08-11 07:43:00,
2013-08-11 00:49:00,62.2,52.7,29.94,WNW,291,0.0,0.0,71,0.00,,FEW009,0.00,VWS V14.01,2013-08-11 07:49:00,
2013-08-11 00:54:00,62.0,52.9,29.94,NW,312,0.0,0.0,72,0.00,,BKN009,0.00,VWS V14.01,2013-08-11 07:54:00,
2013-08-11 01:01:00,62.0,52.9,29.94,NW,312,0.0,0.0,72,0.00,,BKN009,0.00,VWS V14.01,2013-08-11 08:01:00,
2013-08-11 01:07:00,61.9,52.8,29.94,NW,312,0.0,0.0,72,0.00,,CLR,0.00,VWS V14.01,2013-08-11 08:07:00,
2013-08-11 01:13:00,61.7,52.6,29.94,NW,312,0.0,0.0,72,0.00,,BKN009,0.00,VWS V14.01,2013-08-11 08:13:00,
2013-08-11 01:19:00,61.7,52.6,29.94,NW,312,0.0,0.0,72,0.00,,CLR,0.00,VWS V14.01,2013-08-11 08:19:00,
2013-08-11 01:25:00,61.5,52.4,29.94,NW,312,0.0,0.0,72,0.00,,BKN009,0.00,VWS V14.01,2013-08-11 08:25:00,
2013-08-11 01:31:00,61.5,52.4,29.94,NW,312,0.0,0.0,72,0.00,,BKN009,0.00,VWS V14.01,2013-08-11 08:31:00,
2013-08-11 01:36:00,61.3,52.2,29.94,NW,312,0.0,0.0,72,0.00,,BKN009,0.00,VWS V14.01,2013-08-11 08:36:00,
2013-08-11 01:43:00,61.3,52.2,29.94,NW,312,0.0,0.0,72,0.00,,BKN009,0.00,VWS V14.01,2013-08-11 08:43:00,
2013-08-11 01:49:00,61.3,52.2,29.94,NW,312,0.0,0.0,72,0.00,,BKN009,0.00,VWS V14.01,2013-08-11 08:49:00,
2013-08-11 01:54:00,61.3,52.2,29.94,NW,312,0.0,0.0,72,0.00,,BKN009,0.00,VWS V14.01,2013-08-11 08:54:00,
2013-08-11 02:00:00,61.3,52.2,29.94,NW,312,0.0,0.0,72,0.00,,BKN009,0.00,VWS V14.01,2013-08-11 09:00:00,
2013-08-11 02:06:00,61.5,52.4,29.94,NW,312,0.0,0.0,72,0.00,,SCT009,0.00,VWS V14.01,2013-08-11 09:06:00,
2013-08-11 02:12:00,61.5,52.4,29.94,NW,312,0.0,0.0,72,0.00,,BKN009,0.00,VWS V14.01,2013-08-11 09:12:00,
2013-08-11 02:19:00,61.5,52.4,29.94,North,0,0.0,0.0,72,0.00,,SCT009,0.00,VWS V14.01,2013-08-11 09:19:00,
2013-08-11 02:24:00,61.5,52.8,29.94,NNW,334,0.0,0.0,73,0.00,,BKN009,0.00,VWS V14.01,2013-08-11 09:24:00,
2013-08-11 02:30:00,61.3,52.6,29.94,NNW,334,0.0,0.0,73,0.00,,BKN009,0.00,VWS V14.01,2013-08-11 09:30:00,
2013-08-11 02:35:00,61.1,52.4,29.94,NNW,334,0.0,0.0,73,0.00,,OVC009,0.00,VWS V14.01,2013-08-11 09:35:00,
2013-08-11 02:41:00,61.1,52.4,29.94,NNW,335,0.0,0.0,73,0.00,,OVC009,0.00,VWS V14.01,2013-08-11 09:41:00,
2013-08-11 02:46:00,61.1,52.4,29.94,NNW,335,0.0,0.0,73,0.00,,OVC009,0.00,VWS V14.01,2013-08-11 09:46:00,
2013-08-11 02:52:00,61.3,52.6,29.94,North,350,2.2,2.7,73,0.00,,OVC009,0.00,VWS V14.01,2013-08-11 09:52:00,
2013-08-11 02:58:00,61.3,52.6,29.94,North,350,0.0,0.0,73,0.00,,OVC009,0.00,VWS V14.01,2013-08-11 09:58:00,
2013-08-11 03:03:00,61.1,52.4,29.94,North,350,0.0,0.0,73,0.00,,OVC009,0.00,VWS V14.01,2013-08-11 10:03:00,
2013-08-11 03:10:00,61.0,52.3,29.94,North,350,0.0,0.0,73,0.00,,OVC009,0.00,VWS V14.01,2013-08-11 10:10:00,
2013-08-11 03:15:00,60.8,52.1,29.94,North,350,0.0,0.0,73,0.00,,OVC009,0.00,VWS V14.01,2013-08-11 10:15:00,
2013-08-11 03:21:00,60.8,52.1,29.91,North,350,0.0,0.0,73,0.00,,OVC009,0.00,VWS V14.01,2013-08-11 10:21:00,
2013-08-11 03:28:00,60.6,51.9,29.91,North,350,0.0,0.0,73,0.00,,OVC009,0.00,VWS V14.01,2013-08-11 10:28:00,
2013-08-11 03:33:00,60.4,51.7,29.91,North,350,0.0,0.0,73,0.00,,OVC009,0.00,VWS V14.01,2013-08-11 10:33:00,
2013-08-11 03:38:00,60.4,51.7,29.91,North,350,0.0,0.0,73,0.00,,,0.00,VWS V14.01,2013-08-11 10:38:00,
2013-08-11 03:44:00,60.6,51.9,29.91,North,350,0.0,0.0,73,0.00,,,0.00,VWS V14.01,2013-08-11 10:44:00,
2013-08-11 03:49:00,60.8,52.1,29.91,North,350,0.0,0.0,73,0.00,,,0.00,VWS V14.01,2013-08-11 10:49:00,
2013-08-11 03:54:00,61.0,52.6,29.91,North,350,0.0,0.0,74,0.00,,,0.00,VWS V14.01,2013-08-11 10:54:00,
2013-08-11 03:59:00,61.0,52.6,29.91,North,350,0.0,0.0,74,0.00,,,0.00,VWS V14.01,2013-08-11 10:59:00,
2013-08-11 04:04:00,61.3,53.0,29.91,North,350,0.0,0.0,74,0.00,,,0.00,VWS V14.01,2013-08-11 11:04:00,
2013-08-11 04:09:00,61.5,53.2,29.91,North,350,0.0,0.0,74,0.00,,,0.00,VWS V14.01,2013-08-11 11:09:00,
2013-08-11 04:15:00,61.5,53.2,29.91,North,350,0.0,0.0,74,0.00,,,0.00,VWS V14.01,2013-08-11 11:15:00,
2013-08-11 04:20:00,61.9,53.5,29.91,North,350,0.0,0.0,74,0.00,,,0.00,VWS V14.01,2013-08-11 11:20:00,
2013-08-11 04:26:00,61.9,53.5,29.91,North,350,0.0,0.0,74,0.00,,,0.00,VWS V14.01,2013-08-11 11:26:00,
2013-08-11 04:31:00,62.0,54.0,29.91,North,350,3.6,3.6,75,0.00,,,0.00,VWS V14.01,2013-08-11 11:31:00,
2013-08-11 04:37:00,62.2,54.2,29.91,North,350,0.0,0.0,75,0.00,,,0.00,VWS V14.01,2013-08-11 11:37:00,
2013-08-11 04:43:00,62.2,54.2,29.91,North,350,0.0,0.0,75,0.00,,,0.00,VWS V14.01,2013-08-11 11:43:00,
2013-08-11 04:48:00,62.4,54.4,29.91,North,350,0.0,0.0,75,0.00,,,0.00,VWS V14.01,2013-08-11 11:48:00,
2013-08-11 04:54:00,62.4,54.4,29.91,WNW,291,0.0,0.0,75,0.00,,,0.00,VWS V14.01,2013-08-11 11:54:00,
2013-08-11 04:59:00,62.6,54.6,29.91,NNW,343,0.0,0.0,75,0.00,,,0.00,VWS V14.01,2013-08-11 11:59:00,
2013-08-11 05:05:00,62.6,54.6,29.91,NNE,23,0.0,0.0,75,0.00,,,0.00,VWS V14.01,2013-08-11 12:05:00,
2013-08-11 05:10:00,62.6,54.6,29.91,NNE,23,0.0,0.0,75,0.00,,,0.00,VWS V14.01,2013-08-11 12:10:00,
2013-08-11 05:16:00,62.6,54.2,29.91,SE,131,0.0,0.0,74,0.00,,,0.00,VWS V14.01,2013-08-11 12:16:00,
2013-08-11 05:22:00,62.6,54.2,29.91,SE,131,0.0,0.0,74,0.00,,,0.00,VWS V14.01,2013-08-11 12:22:00,
2013-08-11 05:28:00,62.6,53.8,29.91,SE,131,2.2,2.2,73,0.00,,,0.00,VWS V14.01,2013-08-11 12:28:00,
2013-08-11 05:35:00,62.8,54.0,29.91,SE,131,0.0,0.0,73,0.00,,,0.00,VWS V14.01,2013-08-11 12:35:00,
2013-08-11 05:40:00,62.8,54.0,29.91,SE,131,0.0,4.0,73,0.00,,,0.00,VWS V14.01,2013-08-11 12:40:00,
2013-08-11 05:45:00,62.8,53.6,29.91,SE,131,0.0,0.0,72,0.00,,,0.00,VWS V14.01,2013-08-11 12:45:00,
2013-08-11 05:51:00,62.9,53.8,29.94,ENE,66,0.0,0.0,72,0.00,,,0.00,VWS V14.01,2013-08-11 12:51:00,
2013-08-11 05:57:00,62.9,53.8,29.94,ENE,66,0.0,0.0,72,0.00,,,0.00,VWS V14.01,2013-08-11 12:57:00,
2013-08-11 06:02:00,63.1,54.0,29.94,ENE,66,0.0,0.0,72,0.00,,,0.00,VWS V14.01,2013-08-11 13:02:00,
2013-08-11 06:07:00,62.9,53.4,29.94,SE,141,2.7,4.0,71,0.00,,,0.00,VWS V14.01,2013-08-11 13:07:00,
2013-08-11 06:12:00,62.9,53.4,29.94,East,81,2.7,3.6,71,0.00,,,0.00,VWS V14.01,2013-08-11 13:12:00,
2013-08-11 06:18:00,63.1,53.6,29.94,ENE,64,0.0,0.0,71,0.00,,,0.00,VWS V14.01,2013-08-11 13:18:00,
2013-08-11 06:24:00,63.1,53.6,29.94,ENE,64,0.0,0.0,71,0.00,,,0.00,VWS V14.01,2013-08-11 13:24:00,
2013-08-11 06:29:00,63.1,53.6,29.94,NNW,344,0.0,0.0,71,0.00,,,0.00,VWS V14.01,2013-08-11 13:29:00,
2013-08-11 06:35:00,63.3,53.8,29.94,North,353,0.0,0.0,71,0.00,,,0.00,VWS V14.01,2013-08-11 13:35:00,
2013-08-11 06:40:00,63.1,53.6,29.94,SSE,147,0.0,0.0,71,0.00,,,0.00,VWS V14.01,2013-08-11 13:40:00,
2013-08-11 06:45:00,63.3,53.8,29.94,SSE,147,0.0,0.0,71,0.00,,,0.00,VWS V14.01,2013-08-11 13:45:00,
2013-08-11 06:50:00,63.3,53.4,29.94,ENE,71,2.2,3.6,70,0.00,,,0.00,VWS V14.01,2013-08-11 13:50:00,
2013-08-11 06:57:00,63.5,53.5,29.94,ESE,123,0.0,0.0,70,0.00,,,0.00,VWS V14.01,2013-08-11 13:57:00,
2013-08-11 07:02:00,63.5,53.1,29.94,SE,140,2.7,4.9,69,0.00,,,0.00,VWS V14.01,2013-08-11 14:02:00,
2013-08-11 07:08:00,63.5,53.1,29.94,SE,124,2.7,3.1,69,0.00,,,0.00,VWS V14.01,2013-08-11 14:08:00,
2013-08-11 07:14:00,63.7,53.3,29.94,SE,125,0.0,0.0,69,0.00,,,0.00,VWS V14.01,2013-08-11 14:14:00,
2013-08-11 07:20:00,63.5,52.7,29.94,SE,125,2.7,2.7,68,0.00,,,0.00,VWS V14.01,2013-08-11 14:20:00,
2013-08-11 07:26:00,63.7,52.9,29.94,SE,125,2.2,3.1,68,0.00,,,0.00,VWS V14.01,2013-08-11 14:26:00,
2013-08-11 07:31:00,63.7,52.5,29.94,SE,136,3.6,4.9,67,0.00,,,0.00,VWS V14.01,2013-08-11 14:31:00,
2013-08-11 07:36:00,63.8,52.7,29.94,SE,140,0.0,0.0,67,0.00,,,0.00,VWS V14.01,2013-08-11 14:36:00,
2013-08-11 07:42:00,63.8,52.3,29.94,SE,140,0.0,0.0,66,0.00,,,0.00,VWS V14.01,2013-08-11 14:42:00,
2013-08-11 07:49:00,63.8,51.9,29.94,SSW,195,2.7,2.7,65,0.00,,,0.00,VWS V14.01,2013-08-11 14:49:00,
2013-08-11 07:55:00,64.0,51.6,29.94,SSW,195,2.7,2.7,64,0.00,,,0.00,VWS V14.01,2013-08-11 14:55:00,
2013-08-11 08:00:00,64.2,51.8,29.94,SSW,195,0.0,2.7,64,0.00,,,0.00,VWS V14.01,2013-08-11 15:00:00,
2013-08-11 08:06:00,64.4,52.0,29.94,SSW,195,0.0,0.0,64,0.00,,,0.00,VWS V14.01,2013-08-11 15:06:00,
2013-08-11 08:11:00,64.6,51.7,29.94,SSW,195,0.0,0.0,63,0.00,,,0.00,VWS V14.01,2013-08-11 15:11:00,
2013-08-11 08:16:00,64.7,51.4,29.94,South,187,3.6,3.6,62,0.00,,,0.00,VWS V14.01,2013-08-11 15:16:00,
2013-08-11 08:21:00,64.9,51.6,29.94,West,271,0.0,0.0,62,0.00,,,0.00,VWS V14.01,2013-08-11 15:21:00,
2013-08-11 08:27:00,65.3,51.9,29.94,West,271,0.0,0.0,62,0.00,,,0.00,VWS V14.01,2013-08-11 15:27:00,
2013-08-11 08:32:00,65.6,52.3,29.94,West,271,0.0,0.0,62,0.00,,,0.00,VWS V14.01,2013-08-11 15:32:00,
2013-08-11 08:37:00,65.6,50.9,29.94,SW,231,2.2,3.1,59,0.00,,,0.00,VWS V14.01,2013-08-11 15:37:00,
2013-08-11 08:42:00,65.6,50.0,29.94,SSW,194,0.0,3.1,57,0.00,,,0.00,VWS V14.01,2013-08-11 15:42:00,
2013-08-11 08:48:00,65.6,49.5,29.94,SE,132,2.2,2.2,56,0.00,,,0.00,VWS V14.01,2013-08-11 15:48:00,
2013-08-11 08:53:00,65.8,49.2,29.94,SW,220,0.0,0.0,55,0.00,,,0.00,VWS V14.01,2013-08-11 15:53:00,
2013-08-11 08:58:00,66.2,49.1,29.94,SW,220,2.7,2.7,54,0.00,,,0.00,VWS V14.01,2013-08-11 15:58:00,
2013-08-11 09:04:00,66.5,48.9,29.94,ENE,76,3.1,4.0,53,0.00,,,0.00,VWS V14.01,2013-08-11 16:04:00,
2013-08-11 09:10:00,67.3,48.5,29.94,East,79,0.0,3.1,51,0.00,,,0.00,VWS V14.01,2013-08-11 16:10:00,
2013-08-11 09:15:00,67.6,47.2,29.94,SSE,157,2.7,3.6,48,0.00,,,0.00,VWS V14.01,2013-08-11 16:15:00,
2013-08-11 09:21:00,68.0,46.5,29.94,SSE,155,0.0,0.0,46,0.00,,,0.00,VWS V14.01,2013-08-11 16:21:00,
2013-08-11 09:27:00,68.7,46.5,29.94,SSE,155,0.0,0.0,45,0.00,,,0.00,VWS V14.01,2013-08-11 16:27:00,
2013-08-11 09:32:00,69.1,46.3,29.94,South,169,0.0,0.0,44,0.00,,,0.00,VWS V14.01,2013-08-11 16:32:00,
2013-08-11 09:38:00,69.4,46.0,29.94,South,171,2.2,4.0,43,0.00,,,0.00,VWS V14.01,2013-08-11 16:38:00,
2013-08-11 09:43:00,69.4,46.0,29.94,SSW,198,0.0,0.0,43,0.00,,,0.00,VWS V14.01,2013-08-11 16:43:00,
2013-08-11 09:48:00,69.8,45.7,29.94,SSW,198,0.0,2.7,42,0.00,,,0.00,VWS V14.01,2013-08-11 16:48:00,
2013-08-11 09:54:00,70.1,45.4,29.94,SW,217,4.0,4.0,41,0.00,,,0.00,VWS V14.01,2013-08-11 16:54:00,
2013-08-11 09:59:00,69.4,44.1,29.94,SW,226,3.6,6.3,40,0.00,,,0.00,VWS V14.01,2013-08-11 16:59:00,
2013-08-11 10:05:00,69.6,44.2,29.94,West,279,4.0,6.3,40,0.00,,,0.00,VWS V14.01,2013-08-11 17:05:00,
2013-08-11 10:10:00,69.6,43.6,29.94,West,263,4.0,7.6,39,0.00,,,0.00,VWS V14.01,2013-08-11 17:10:00,
2013-08-11 10:16:00,70.5,45.0,29.94,WNW,299,3.1,5.8,40,0.00,,,0.00,VWS V14.01,2013-08-11 17:16:00,
2013-08-11 10:21:00,71.4,44.5,29.94,SSW,197,0.0,3.1,38,0.00,,,0.00,VWS V14.01,2013-08-11 17:21:00,
2013-08-11 10:27:00,70.9,44.0,29.94,SW,227,5.4,5.8,38,0.00,,,0.00,VWS V14.01,2013-08-11 17:27:00,
2013-08-11 10:34:00,71.0,42.8,29.94,SW,221,5.4,5.8,36,0.00,,,0.00,VWS V14.01,2013-08-11 17:34:00,
2013-08-11 10:40:00,71.6,42.5,29.94,WSW,246,4.9,5.8,35,0.00,,SCT017,0.00,VWS V14.01,2013-08-11 17:40:00,
2013-08-11 10:46:00,72.5,42.5,29.94,WSW,251,3.1,4.0,34,0.00,,SCT017,0.00,VWS V14.01,2013-08-11 17:46:00,
2013-08-11 10:51:00,73.0,43.0,29.94,SSE,155,4.9,4.9,34,0.00,,SCT017,0.00,VWS V14.01,2013-08-11 17:51:00,
2013-08-11 10:57:00,73.7,42.1,29.94,SSW,206,3.6,6.3,32,0.00,,SCT017,0.00,VWS V14.01,2013-08-11 17:57:00,
2013-08-11 11:03:00,74.3,42.5,29.94,South,187,4.0,4.0,32,0.00,,SCT017,0.00,VWS V14.01,2013-08-11 18:03:00,
2013-08-11 11:09:00,75.4,42.7,29.94,South,190,0.0,0.0,31,0.00,,OVC017,0.00,VWS V14.01,2013-08-11 18:09:00,
2013-08-11 11:14:00,76.4,42.7,29.94,SSE,161,4.0,5.4,30,0.00,,SCT017,0.00,VWS V14.01,2013-08-11 18:14:00,
2013-08-11 11:19:00,76.1,42.4,29.94,SE,132,5.4,5.8,30,0.00,,OVC017,0.00,VWS V14.01,2013-08-11 18:19:00,
2013-08-11 11:25:00,77.3,42.6,29.94,NE,38,3.1,4.9,29,0.00,,SCT017,0.00,VWS V14.01,2013-08-11 18:25:00,
2013-08-11 11:30:00,78.4,40.7,29.94,SSW,208,4.0,5.4,26,0.00,,SCT017,0.00,VWS V14.01,2013-08-11 18:30:00,
2013-08-11 11:37:00,78.1,39.4,29.94,SW,231,4.0,5.8,25,0.00,,CLR,0.00,VWS V14.01,2013-08-11 18:37:00,
2013-08-11 11:43:00,77.5,40.0,29.94,SE,140,5.4,5.4,26,0.00,,CLR,0.00,VWS V14.01,2013-08-11 18:43:00,
2013-08-11 11:48:00,77.7,40.1,29.91,SW,234,4.0,4.0,26,0.00,,CLR,0.00,VWS V14.01,2013-08-11 18:48:00,
2013-08-11 11:54:00,78.1,39.4,29.91,West,262,6.3,6.3,25,0.00,,CLR,0.00,VWS V14.01,2013-08-11 18:54:00,
2013-08-11 12:00:00,77.0,38.5,29.91,SW,229,3.6,6.3,25,0.00,,CLR,0.00,VWS V14.01,2013-08-11 19:00:00,
2013-08-11 12:05:00,79.1,40.3,29.91,SSE,165,3.1,3.1,25,0.00,,CLR,0.00,VWS V14.01,2013-08-11 19:05:00,
2013-08-11 12:11:00,78.1,37.3,29.91,WSW,244,5.4,6.3,23,0.00,,CLR,0.00,VWS V14.01,2013-08-11 19:11:00,
2013-08-11 12:17:00,79.7,37.5,29.91,South,187,3.6,4.9,22,0.00,,CLR,0.00,VWS V14.01,2013-08-11 19:17:00,
2013-08-11 12:22:00,79.7,38.7,29.91,South,188,6.3,6.3,23,0.00,,CLR,0.00,VWS V14.01,2013-08-11 19:22:00,
2013-08-11 12:27:00,80.0,39.0,29.91,South,176,2.2,4.0,23,0.00,,CLR,0.00,VWS V14.01,2013-08-11 19:27:00,
2013-08-11 12:33:00,79.9,38.8,29.91,SSW,205,3.6,4.9,23,0.00,,CLR,0.00,VWS V14.01,2013-08-11 19:33:00,
2013-08-11 12:39:00,80.0,39.0,29.91,SSW,211,4.0,5.8,23,0.00,,CLR,0.00,VWS V14.01,2013-08-11 19:39:00,
2013-08-11 12:44:00,80.8,37.2,29.91,SSW,198,4.9,8.1,21,0.00,,CLR,0.00,VWS V14.01,2013-08-11 19:44:00,
2013-08-11 12:50:00,80.2,38.0,29.91,SSW,198,8.3,8.3,22,0.00,,CLR,0.00,VWS V14.01,2013-08-11 19:50:00,
2013-08-11 12:56:00,80.2,38.0,29.91,South,191,5.8,6.3,22,0.00,,CLR,0.00,VWS V14.01,2013-08-11 19:56:00,
2013-08-11 13:01:00,80.2,38.0,29.91,SE,142,3.6,4.0,22,0.00,,CLR,0.00,VWS V14.01,2013-08-11 20:01:00,
2013-08-11 13:06:00,79.9,37.7,29.91,SW,214,4.0,8.7,22,0.00,,CLR,0.00,VWS V14.01,2013-08-11 20:06:00,
2013-08-11 13:11:00,80.0,37.8,29.91,South,179,7.6,8.3,22,0.00,,CLR,0.00,VWS V14.01,2013-08-11 20:11:00,
2013-08-11 13:19:00,79.7,37.5,29.91,SSE,155,6.3,7.6,22,0.00,,CLR,0.00,VWS V14.01,2013-08-11 20:19:00,
2013-08-11 13:25:00,79.5,37.4,29.91,SSW,203,6.3,7.6,22,0.00,,CLR,0.00,VWS V14.01,2013-08-11 20:25:00,
2013-08-11 13:31:00,79.9,37.7,29.91,SSE,164,5.4,8.1,22,0.00,,CLR,0.00,VWS V14.01,2013-08-11 20:31:00,
2013-08-11 13:36:00,79.9,38.8,29.88,South,189,8.1,8.1,23,0.00,,CLR,0.00,VWS V14.01,2013-08-11 20:36:00,
2013-08-11 13:41:00,79.0,38.0,29.88,SSW,195,6.3,6.7,23,0.00,,CLR,0.00,VWS V14.01,2013-08-11 20:41:00,
2013-08-11 13:46:00,79.0,39.1,29.88,South,180,5.4,5.4,24,0.00,,CLR,0.00,VWS V14.01,2013-08-11 20:46:00,
2013-08-11 13:52:00,78.8,39.0,29.88,SSW,208,5.4,10.1,24,0.00,,CLR,0.00,VWS V14.01,2013-08-11 20:52:00,
2013-08-11 13:57:00,79.0,39.1,29.88,South,174,4.0,5.8,24,0.00,,CLR,0.00,VWS V14.01,2013-08-11 20:57:00,
2013-08-11 14:02:00,79.7,38.7,29.88,SSE,157,3.6,6.3,23,0.00,,CLR,0.00,VWS V14.01,2013-08-11 21:02:00,
2013-08-11 14:07:00,79.1,38.2,29.88,South,183,3.6,7.2,23,0.00,,CLR,0.00,VWS V14.01,2013-08-11 21:07:00,
2013-08-11 14:13:00,78.6,38.8,29.88,SSW,199,5.4,7.6,24,0.00,,CLR,0.00,VWS V14.01,2013-08-11 21:13:00,
2013-08-11 14:20:00,78.8,39.0,29.88,South,176,6.7,8.1,24,0.00,,CLR,0.00,VWS V14.01,2013-08-11 21:20:00,
2013-08-11 14:25:00,78.4,39.7,29.88,South,186,5.8,8.3,25,0.00,,CLR,0.00,VWS V14.01,2013-08-11 21:25:00,
2013-08-11 14:31:00,78.2,39.6,29.88,SSW,206,5.4,5.8,25,0.00,,CLR,0.00,VWS V14.01,2013-08-11 21:31:00,
2013-08-11 14:37:00,79.0,39.1,29.88,SSE,147,3.6,6.3,24,0.00,,CLR,0.00,VWS V14.01,2013-08-11 21:37:00,
2013-08-11 14:43:00,80.0,40.0,29.88,SSW,213,6.3,7.6,24,0.00,,CLR,0.00,VWS V14.01,2013-08-11 21:43:00,
2013-08-11 14:49:00,80.4,38.1,29.88,South,177,6.3,7.6,22,0.00,,CLR,0.00,VWS V14.01,2013-08-11 21:49:00,
2013-08-11 14:55:00,80.6,38.3,29.88,SE,143,4.9,6.3,22,0.00,,CLR,0.00,VWS V14.01,2013-08-11 21:55:00,
2013-08-11 15:01:00,80.9,38.6,29.88,SE,131,3.6,4.9,22,0.00,,CLR,0.00,VWS V14.01,2013-08-11 22:01:00,
2013-08-11 15:06:00,81.1,38.7,29.88,SSW,213,4.0,5.4,22,0.00,,CLR,0.00,VWS V14.01,2013-08-11 22:06:00,
2013-08-11 15:11:00,81.8,38.1,29.88,SE,142,2.7,5.8,21,0.00,,CLR,0.00,VWS V14.01,2013-08-11 22:11:00,
2013-08-11 15:17:00,82.7,37.6,29.85,SSE,159,2.7,4.9,20,0.00,,CLR,0.00,VWS V14.01,2013-08-11 22:17:00,
2013-08-11 15:23:00,82.2,37.2,29.85,SSE,157,3.1,5.8,20,0.00,,CLR,0.00,VWS V14.01,2013-08-11 22:23:00,
2013-08-11 15:28:00,81.8,36.9,29.85,South,174,2.7,5.4,20,0.00,,CLR,0.00,VWS V14.01,2013-08-11 22:28:00,
2013-08-11 15:34:00,80.9,36.1,29.85,South,176,9.6,10.1,20,0.00,,CLR,0.00,VWS V14.01,2013-08-11 22:34:00,
2013-08-11 15:39:00,82.2,35.9,29.85,SE,143,4.0,8.1,19,0.00,,CLR,0.00,VWS V14.01,2013-08-11 22:39:00,
2013-08-11 15:44:00,82.2,35.9,29.85,SSE,160,3.6,8.1,19,0.00,,CLR,0.00,VWS V14.01,2013-08-11 22:44:00,
2013-08-11 15:49:00,82.6,36.2,29.85,South,171,4.0,6.3,19,0.00,,CLR,0.00,VWS V14.01,2013-08-11 22:49:00,
2013-08-11 15:55:00,82.6,36.2,29.85,SSW,196,6.3,9.6,19,0.00,,CLR,0.00,VWS V14.01,2013-08-11 22:55:00,
2013-08-11 16:00:00,82.9,36.5,29.85,SE,136,4.0,5.4,19,0.00,,CLR,0.00,VWS V14.01,2013-08-11 23:00:00,
2013-08-11 16:06:00,83.6,37.1,29.85,SSW,211,3.6,5.4,19,0.00,,CLR,0.00,VWS V14.01,2013-08-11 23:06:00,
2013-08-11 16:11:00,83.5,35.5,29.85,SSW,197,5.4,5.4,18,0.00,,CLR,0.00,VWS V14.01,2013-08-11 23:11:00,
2013-08-11 16:17:00,83.5,35.5,29.85,South,184,4.0,4.9,18,0.00,,CLR,0.00,VWS V14.01,2013-08-11 23:17:00,
2013-08-11 16:22:00,83.5,35.5,29.85,SSW,204,5.8,5.8,18,0.00,,CLR,0.00,VWS V14.01,2013-08-11 23:22:00,
2013-08-11 16:28:00,82.6,36.2,29.85,WSW,242,6.3,8.1,19,0.00,,CLR,0.00,VWS V14.01,2013-08-11 23:28:00,
2013-08-11 16:34:00,79.1,35.9,29.85,West,280,3.6,8.3,21,0.00,,CLR,0.00,VWS V14.01,2013-08-11 23:34:00,
2013-08-11 16:39:00,79.1,37.1,29.85,WSW,255,8.7,8.7,22,0.00,,CLR,0.00,VWS V14.01,2013-08-11 23:39:00,
2013-08-11 16:45:00,79.3,39.4,29.85,NW,324,3.6,8.3,24,0.00,,CLR,0.00,VWS V14.01,2013-08-11 23:45:00,
2013-08-11 16:51:00,80.2,39.1,29.85,WNW,302,5.4,5.8,23,0.00,,CLR,0.00,VWS V14.01,2013-08-11 23:51:00,
2013-08-11 16:57:00,80.4,38.1,29.85,NW,308,5.8,10.5,22,0.00,,CLR,0.00,VWS V14.01,2013-08-11 23:57:00,
2013-08-11 17:03:00,80.6,38.3,29.85,NW,311,5.4,7.6,22,0.00,,CLR,0.00,VWS V14.01,2013-08-12 00:03:00,
2013-08-11 17:09:00,78.2,38.5,29.85,WNW,283,5.8,5.8,24,0.00,,CLR,0.00,VWS V14.01,2013-08-12 00:09:00,
2013-08-11 17:16:00,77.7,39.1,29.85,WNW,290,5.4,8.3,25,0.00,,CLR,0.00,VWS V14.01,2013-08-12 00:16:00,
2013-08-11 17:21:00,77.3,39.8,29.83,SW,235,5.4,8.3,26,0.00,,CLR,0.00,VWS V14.01,2013-08-12 00:21:00,
2013-08-11 17:28:00,77.3,39.8,29.83,West,267,7.6,7.6,26,0.00,,CLR,0.00,VWS V14.01,2013-08-12 00:28:00,
2013-08-11 17:33:00,76.4,42.7,29.83,West,260,5.4,5.8,30,0.00,,CLR,0.00,VWS V14.01,2013-08-12 00:33:00,
2013-08-11 17:38:00,76.1,42.4,29.83,West,262,5.8,8.3,30,0.00,,CLR,0.00,VWS V14.01,2013-08-12 00:38:00,
2013-08-11 17:44:00,76.6,42.9,29.83,WNW,293,5.8,7.6,30,0.00,,CLR,0.00,VWS V14.01,2013-08-12 00:44:00,
2013-08-11 17:49:00,76.1,43.3,29.83,WNW,297,6.7,10.5,31,0.00,,CLR,0.00,VWS V14.01,2013-08-12 00:49:00,
2013-08-11 17:55:00,75.7,42.1,29.83,West,281,5.4,8.7,30,0.00,,CLR,0.00,VWS V14.01,2013-08-12 00:55:00,
2013-08-11 18:02:00,76.4,43.6,29.83,WNW,294,5.4,10.1,31,0.00,,CLR,0.00,VWS V14.01,2013-08-12 01:02:00,
2013-08-11 18:08:00,74.6,42.9,29.83,WNW,286,8.1,8.7,32,0.00,,CLR,0.00,VWS V14.01,2013-08-12 01:08:00,
2013-08-11 18:13:00,73.4,41.8,29.83,West,271,7.6,8.3,32,0.00,,CLR,0.00,VWS V14.01,2013-08-12 01:13:00,
2013-08-11 18:19:00,74.8,43.0,29.83,NW,308,6.3,8.7,32,0.00,,CLR,0.00,VWS V14.01,2013-08-12 01:19:00,
2013-08-11 18:24:00,74.8,42.2,29.83,NW,311,5.4,8.1,31,0.00,,CLR,0.00,VWS V14.01,2013-08-12 01:24:00,
2013-08-11 18:30:00,74.8,42.2,29.83,WNW,300,4.0,5.8,31,0.00,,CLR,0.00,VWS V14.01,2013-08-12 01:30:00,
2013-08-11 18:37:00,73.2,42.4,29.83,WNW,292,4.0,4.0,33,0.00,,CLR,0.00,VWS V14.01,2013-08-12 01:37:00,
2013-08-11 18:43:00,72.7,41.9,29.83,WNW,303,3.6,6.3,33,0.00,,CLR,0.00,VWS V14.01,2013-08-12 01:43:00,
2013-08-11 18:48:00,72.8,42.9,29.85,WNW,285,6.3,8.3,34,0.00,,CLR,0.00,VWS V14.01,2013-08-12 01:48:00,
2013-08-11 18:53:00,72.1,42.2,29.85,West,272,5.8,8.1,34,0.00,,CLR,0.00,VWS V14.01,2013-08-12 01:53:00,
2013-08-11 18:59:00,70.7,43.2,29.85,NW,305,8.7,8.7,37,0.00,,CLR,0.00,VWS V14.01,2013-08-12 01:59:00,
2013-08-11 19:05:00,70.3,44.2,29.85,West,265,6.3,7.6,39,0.00,,CLR,0.00,VWS V14.01,2013-08-12 02:05:00,
2013-08-11 19:12:00,70.3,44.2,29.85,NW,311,5.4,6.3,39,0.00,,CLR,0.00,VWS V14.01,2013-08-12 02:12:00,
2013-08-11 19:17:00,69.8,44.4,29.85,WSW,258,5.8,8.1,40,0.00,,CLR,0.00,VWS V14.01,2013-08-12 02:17:00,
2013-08-11 19:23:00,69.4,45.4,29.85,NW,312,5.8,5.8,42,0.00,,CLR,0.00,VWS V14.01,2013-08-12 02:23:00,
2013-08-11 19:29:00,68.9,45.5,29.85,WSW,253,3.1,6.3,43,0.00,,CLR,0.00,VWS V14.01,2013-08-12 02:29:00,
2013-08-11 19:34:00,68.5,45.8,29.85,WNW,302,4.9,8.7,44,0.00,,CLR,0.00,VWS V14.01,2013-08-12 02:34:00,
2013-08-11 19:39:00,68.5,45.8,29.85,WNW,287,2.7,3.6,44,0.00,,CLR,0.00,VWS V14.01,2013-08-12 02:39:00,
2013-08-11 19:44:00,68.0,45.9,29.85,WNW,297,5.4,8.1,45,0.00,,CLR,0.00,VWS V14.01,2013-08-12 02:44:00,
2013-08-11 19:50:00,67.4,46.5,29.85,West,273,3.6,6.3,47,0.00,,CLR,0.00,VWS V14.01,2013-08-12 02:50:00,
2013-08-11 19:56:00,67.3,46.9,29.85,West,271,4.9,7.6,48,0.00,,CLR,0.00,VWS V14.01,2013-08-12 02:56:00,
2013-08-11 20:02:00,67.1,47.3,29.85,NNW,330,4.0,6.3,49,0.00,,CLR,0.00,VWS V14.01,2013-08-12 03:02:00,
2013-08-11 20:08:00,66.7,47.5,29.85,WSW,251,6.3,6.3,50,0.00,,CLR,0.00,VWS V14.01,2013-08-12 03:08:00,
2013-08-11 20:13:00,66.4,47.7,29.85,WNW,299,3.1,4.9,51,0.00,,CLR,0.00,VWS V14.01,2013-08-12 03:13:00,
2013-08-11 20:20:00,66.0,48.4,29.85,NW,315,2.7,4.0,53,0.00,,CLR,0.00,VWS V14.01,2013-08-12 03:20:00,
2013-08-11 20:26:00,65.6,48.1,29.85,West,278,6.3,6.3,53,0.00,,CLR,0.00,VWS V14.01,2013-08-12 03:26:00,
2013-08-11 20:32:00,65.6,49.0,29.85,WNW,290,6.7,6.7,55,0.00,,CLR,0.00,VWS V14.01,2013-08-12 03:32:00,
2013-08-11 20:37:00,65.5,48.9,29.85,NNW,339,6.3,8.1,55,0.00,,CLR,0.00,VWS V14.01,2013-08-12 03:37:00,
2013-08-11 20:42:00,65.3,49.2,29.85,WNW,288,5.4,6.7,56,0.00,,CLR,0.00,VWS V14.01,2013-08-12 03:42:00,
2013-08-11 20:48:00,65.3,49.2,29.85,NW,317,5.4,5.4,56,0.00,,CLR,0.00,VWS V14.01,2013-08-12 03:48:00,
2013-08-11 20:53:00,65.3,49.7,29.85,NW,325,4.0,5.4,57,0.00,,CLR,0.00,VWS V14.01,2013-08-12 03:53:00,
2013-08-11 20:58:00,65.3,49.7,29.85,NW,304,3.1,5.8,57,0.00,,CLR,0.00,VWS V14.01,2013-08-12 03:58:00,
2013-08-11 21:01:00,65.3,49.7,29.85,WNW,294,4.0,4.0,57,0.00,,CLR,0.00,VWS V14.01,2013-08-12 04:01:00,
2013-08-11 21:02:00,65.3,49.7,29.88,West,277,3.6,4.0,57,0.00,,CLR,0.00,VWS V14.01,2013-08-12 04:02:00,
2013-08-11 21:05:00,65.1,49.5,29.88,NW,315,0.0,3.6,57,0.00,,CLR,0.00,VWS V14.01,2013-08-12 04:05:00,
2013-08-11 21:07:00,65.1,49.5,29.88,West,277,3.1,3.6,57,0.00,,CLR,0.00,VWS V14.01,2013-08-12 04:07:00,
2013-08-11 21:09:00,65.1,49.5,29.88,NNW,339,4.0,4.9,57,0.00,,CLR,0.00,VWS V14.01,2013-08-12 04:09:00,
2013-08-11 21:14:00,65.1,50.0,29.88,West,272,5.8,5.8,58,0.00,,CLR,0.00,VWS V14.01,2013-08-12 04:14:00,
2013-08-11 21:19:00,64.9,50.3,29.88,NW,323,2.7,3.6,59,0.00,,CLR,0.00,VWS V14.01,2013-08-12 04:19:00,
2013-08-11 21:25:00,64.9,50.3,29.88,NW,317,2.7,3.6,59,0.00,,CLR,0.00,VWS V14.01,2013-08-12 04:25:00,
2013-08-11 21:31:00,64.9,50.3,29.88,NNW,332,3.6,3.6,59,0.00,,CLR,0.00,VWS V14.01,2013-08-12 04:31:00,
2013-08-11 21:36:00,64.9,50.3,29.88,NNW,329,0.0,2.7,59,0.00,,CLR,0.00,VWS V14.01,2013-08-12 04:36:00,
2013-08-11 21:42:00,64.7,50.1,29.88,WNW,295,3.1,4.0,59,0.00,,CLR,0.00,VWS V14.01,2013-08-12 04:42:00,
2013-08-11 21:47:00,64.7,50.1,29.88,NW,323,2.2,3.1,59,0.00,,CLR,0.00,VWS V14.01,2013-08-12 04:47:00,
2013-08-11 21:52:00,64.6,49.9,29.88,NNW,346,3.1,3.6,59,0.00,,CLR,0.00,VWS V14.01,2013-08-12 04:52:00,
2013-08-11 21:57:00,64.6,49.9,29.88,NNW,336,3.6,3.6,59,0.00,,CLR,0.00,VWS V14.01,2013-08-12 04:57:00,
2013-08-11 22:03:00,64.4,50.2,29.88,NNW,343,4.0,4.0,60,0.00,,CLR,0.00,VWS V14.01,2013-08-12 05:03:00,
2013-08-11 22:08:00,64.4,50.2,29.88,NNW,334,0.0,0.0,60,0.00,,CLR,0.00,VWS V14.01,2013-08-12 05:08:00,
2013-08-11 22:14:00,64.2,50.0,29.88,NNW,344,4.0,4.0,60,0.00,,CLR,0.00,VWS V14.01,2013-08-12 05:14:00,
2013-08-11 22:20:00,64.2,50.5,29.88,NNW,344,3.1,4.0,61,0.00,,CLR,0.00,VWS V14.01,2013-08-12 05:20:00,
2013-08-11 22:25:00,64.0,50.3,29.88,NNW,332,0.0,2.2,61,0.00,,CLR,0.00,VWS V14.01,2013-08-12 05:25:00,
2013-08-11 22:30:00,64.0,50.3,29.88,NNW,337,2.2,2.7,61,0.00,,CLR,0.00,VWS V14.01,2013-08-12 05:30:00,
2013-08-11 22:36:00,63.8,50.6,29.88,NNW,334,2.7,3.1,62,0.00,,CLR,0.00,VWS V14.01,2013-08-12 05:36:00,
2013-08-11 22:42:00,63.8,50.6,29.88,NNW,337,2.7,3.1,62,0.00,,CLR,0.00,VWS V14.01,2013-08-12 05:42:00,
2013-08-11 22:47:00,63.8,51.0,29.88,WNW,289,0.0,0.0,63,0.00,,CLR,0.00,VWS V14.01,2013-08-12 05:47:00,
2013-08-11 22:53:00,63.7,50.8,29.88,WNW,289,0.0,0.0,63,0.00,,CLR,0.00,VWS V14.01,2013-08-12 05:53:00,
2013-08-11 22:59:00,63.7,50.8,29.88,WNW,289,0.0,0.0,63,0.00,,CLR,0.00,VWS V14.01,2013-08-12 05:59:00,
2013-08-11 23:04:00,63.7,50.8,29.88,WNW,295,0.0,0.0,63,0.00,,CLR,0.00,VWS V14.01,2013-08-12 06:04:00,
2013-08-11 23:09:00,63.5,50.7,29.88,WNW,295,0.0,0.0,63,0.00,,CLR,0.00,VWS V14.01,2013-08-12 06:09:00,
2013-08-11 23:14:00,63.5,51.1,29.88,WNW,295,0.0,0.0,64,0.00,,CLR,0.00,VWS V14.01,2013-08-12 06:14:00,
2013-08-11 23:20:00,63.5,51.1,29.88,WNW,295,0.0,0.0,64,0.00,,CLR,0.00,VWS V14.01,2013-08-12 06:20:00,
2013-08-11 23:25:00,63.3,50.9,29.88,WNW,295,0.0,0.0,64,0.00,,CLR,0.00,VWS V14.01,2013-08-12 06:25:00,
2013-08-11 23:31:00,63.3,50.9,29.88,WNW,295,0.0,0.0,64,0.00,,CLR,0.00,VWS V14.01,2013-08-12 06:31:00,
2013-08-11 23:37:00,63.1,50.8,29.88,WNW,295,0.0,0.0,64,0.00,,CLR,0.00,VWS V14.01,2013-08-12 06:37:00,
2013-08-11 23:42:00,63.1,50.8,29.88,WNW,295,0.0,0.0,64,0.00,,CLR,0.00,VWS V14.01,2013-08-12 06:42:00,
2013-08-11 23:48:00,62.9,50.6,29.88,WNW,295,0.0,0.0,64,0.00,,CLR,0.00,VWS V14.01,2013-08-12 06:48:00,
2013-08-11 23:53:00,62.8,50.4,29.88,WNW,295,0.0,0.0,64,0.00,,CLR,0.00,VWS V14.01,2013-08-12 06:53:00,
2013-08-11 23:59:00,62.8,50.4,29.88,WNW,295,0.0,0.0,64,0.00,,CLR,0.00,VWS V14.01,2013-08-12 06:59:00,